#timestamp,LO_Frequency,Hit,StdDev 
1665889215.4,286047001.3,N
1665889235.2,286047003.4,N
1665889255.1,286047005.5,Y
1665889275.8,286047001.3,P
1665889295.7,286047002.2,P
1665889315.5,286047001.6,P
1665889335.4,286047001.5,Y
1665889355.2,286047002.6,P
1665889375.0,286047000.1,N
1665889375.9,286047000.1,N
1665889395.8,286046999.7,N
1665889415.6,286046999.8,N
1665889435.4,286047000.0,N
1665889455.3,286046999.8,N
1665889475.1,286047002.5,N
1665889495.9,286047004.3,Y
1665889515.7,286047002.3,P
1665889535.5,286047001.7,N
1665889555.4,286047002.1,P
1665889575.2,286047002.2,Y
1665889595.1,286047001.2,P
1665889596.0,286047001.2,P
1665889615.8,286046999.0,P
1665889635.6,286046999.5,N
1665889655.5,286046999.4,N
1665889675.3,286046999.1,N
1665889695.2,286046996.9,N
1665889715.9,286046999.5,N
1665889735.7,286046996.9,N
1665889755.6,286046997.0,N
1665889775.4,286046997.4,N
1665889795.2,286046997.3,N
1665889815.1,286046997.4,N
1665889816.0,286046997.4,N
1665889835.8,286046996.7,N
1665889855.7,286046996.6,N
1665889875.5,286046996.8,N
1665889895.3,286046996.9,N
1665889915.2,286046997.7,N
1665889935.9,286046995.0,Y
1665889955.7,286046996.7,P
1665889975.6,286046997.0,P
1665889995.4,286046997.2,P
1665890015.3,286046997.3,Y
1665890035.1,286047000.5,P
1665890036.0,286047000.5,N
1665890055.8,286047001.2,N
1665890075.7,286047000.8,N
1665890095.5,286046998.7,N
1665890115.3,286046999.1,N
1665890135.2,286046999.2,N
1665890155.0,286046999.4,N
1665890155.9,286046999.4,N
1665890175.8,286046999.0,N
1665890195.6,286046999.6,N
1665890215.4,286046999.1,N
1665890235.3,286046999.6,N
1665890255.1,286046997.8,N
1665890275.9,286046997.8,N
1665890295.7,286046997.7,N
1665890315.5,286046999.2,N
1665890335.4,286046998.4,N
1665890355.2,286046999.5,N
1665890375.0,286046998.8,N
1665890375.9,286046998.8,N
1665890395.8,286046998.8,N
1665890415.6,286046998.7,N
1665890435.5,286046998.2,N
1665890455.3,286046998.4,N
1665890475.1,286046998.7,N
1665890495.9,286046999.1,N
1665890515.7,286046999.3,N
1665890535.5,286046996.6,Y
1665890555.4,286046998.3,P
1665890575.2,286046998.7,P
1665890595.0,286046999.2,N
1665890596.0,286046999.2,N
1665890615.8,286046999.6,N
1665890635.6,286046996.9,Y
1665890655.5,286046996.9,P
1665890675.3,286046996.7,P
1665890695.1,286046997.1,N
1665890715.9,286046996.5,Y
1665890735.7,286047000.9,P
1665890755.6,286047001.0,N
1665890775.4,286047001.0,N
1665890795.2,286046998.2,N
1665890815.1,286046998.7,N
1665890816.0,286046998.7,N
1665890835.8,286047000.8,N
1665890855.7,286047000.7,N
1665890875.5,286047000.6,N
1665890895.3,286047000.8,N
1665890915.2,286046998.1,N
1665890935.0,286047001.1,N
1665890935.9,286047001.1,N
1665890955.7,286046998.2,N
1665890975.6,286047000.9,N
1665890995.4,286047001.2,N
1665891015.3,286047001.1,N
1665891035.1,286047001.2,N
1665891036.0,286047001.2,N
1665891055.8,286046996.5,N
1665891075.7,286046999.4,N
1665891095.5,286046998.9,N
1665891115.3,286046998.7,N
1665891135.2,286046999.5,N
1665891155.0,286046999.3,N
1665891155.9,286046999.3,N
1665891175.8,286046998.9,N
1665891195.6,286046998.4,N
1665891215.4,286046999.3,N
1665891235.3,286046997.4,N
1665891255.1,286046996.8,N
1665891275.9,286046997.6,N
1665891295.7,286046997.7,N
1665891315.5,286046996.5,N
1665891335.4,286046996.9,N
1665891355.2,286046997.2,N
1665891375.0,286046997.9,N
1665891375.9,286046997.9,N
1665891395.8,286046997.6,N
1665891415.6,286046997.9,N
1665891435.5,286046995.2,Y
1665891455.3,286046996.7,P
1665891475.1,286046999.6,N
1665891495.9,286046999.2,N
1665891515.7,286046997.0,N
1665891535.6,286046999.5,N
1665891555.4,286046997.4,N
1665891575.2,286046999.2,N
1665891595.1,286046997.0,N
1665891596.0,286046997.0,N
1665891615.8,286046999.5,N
1665891635.6,286046999.6,N
1665891655.5,286046998.7,N
1665891675.3,286046998.2,N
1665891695.2,286046998.4,N
1665891715.9,286046998.7,N
1665891735.7,286046999.1,N
1665891755.6,286046996.5,Y
1665891775.4,286047001.2,P
1665891795.2,286047001.1,N
1665891815.1,286046996.5,N
1665891816.0,286046996.5,N
1665891835.8,286046998.9,N
1665891855.7,286046999.5,N
1665891875.5,286046999.0,N
1665891895.3,286046998.2,N
1665891915.2,286046998.8,N
1665891935.0,286046998.8,N
1665891935.9,286046998.8,N
1665891955.7,286046998.2,N
1665891975.6,286046998.3,N
1665891995.4,286046998.3,N
1665892015.3,286046998.5,N
1665892035.1,286046999.3,N
1665892036.0,286046999.3,N
1665892055.8,286046999.4,N
1665892075.7,286046999.5,N
1665892095.5,286046999.4,N
1665892115.3,286046998.4,N
1665892135.2,286046998.3,N
1665892155.0,286046998.1,N
1665892155.9,286046998.1,N
1665892175.8,286046998.8,N
1665892195.6,286046998.3,N
1665892215.4,286047001.2,N
1665892235.3,286046998.2,N
1665892255.1,286047000.7,N
1665892275.8,286046998.7,N
1665892295.7,286046998.2,N
1665892315.5,286046998.4,N
1665892335.4,286046999.3,N
1665892355.2,286046999.1,N
1665892375.0,286046996.6,Y
1665892375.9,286046996.6,P
1665892395.8,286046999.1,N
1665892415.6,286046999.0,N
1665892435.4,286046999.3,N
1665892455.3,286046998.2,N
1665892475.1,286046998.4,N
1665892495.9,286046998.1,N
1665892515.7,286047000.9,N
1665892535.5,286047000.8,N
1665892555.4,286047000.7,N
1665892575.2,286046999.1,N
1665892595.0,286046998.9,N
1665892595.9,286046998.9,N
1665892615.8,286046999.4,N
1665892635.6,286046996.6,Y
1665892655.5,286046998.9,P
1665892675.3,286046998.4,P
1665892695.1,286046998.2,P
1665892715.9,286046998.5,Y
1665892735.7,286047000.7,P
1665892755.6,286046999.9,N
1665892775.4,286046999.7,N
1665892795.2,286046999.9,N
